Starlink 31406

operational
NORAD ID: 59017 Int'l Des: 2024-036 Owner: SPXS Country: US Constellation: starlink
LEOCIRCULAR

About Starlink 31406

Description loading...

Live Position

Loading 3D Globe...

Upcoming Passes

Altitude History

Altitude vs Time

uPlot chart will show altitude changes over time

Two-Line Element Set

1 59017U 24036V 25257.47847908 -.00000376 00000-0 56941-6 0 9993
2 59017 53.1574 164.6067 0000882 94.6898 265.4208 15.39615209 88511
Epoch: Sep 14, 2025 • Age: 19 hours

Current Status

Altitude 452.5 km
Velocity 7.65 km/s
Sub-Earth Point 50.15°N, 132.18°E
Launch Date Feb 23, 2024
Age 1.5 years
Type internet

Technical Details

Classification Payload
Mass 730.00 kg
Dry Mass 700.00 kg
Total Mass 730.00 kg
Length 0.30 m
Diameter 4.10 m
Span 29.00 m
Shape Box + pan
Manufacturer SPXS
Bus Type Starlink V2M
Phase Status In Orbit
Owner/State SPXS/US

Large Constellations

Loading constellations...